User: anonymous   Login
Location: Unspecified
(0.0000°N, 0.0000°E)
Time: 20:15:20
(UTC+00:00)
Language:

CORVUS BC2 - Orbit

View from above orbital plane
View from above orbital plane
View from above satellite
View from above satellite

Ground track
Ground track

The orbit data is extracted from the following two-line orbital elements,

1 42846U 17042X   19341.50164386  .00000294  00000-0  34243-4 0  9994
2 42846  97.5453 228.4418 0009069 193.4749 166.6230 14.92034091130639
Epoch (UTC): 07 December 2019 12:02:22
Eccentricity: 0.0009069
inclination: 97.5453°
perigee height: 585 km
apogee height: 598 km
right ascension of ascending node: 228.4418°
argument of perigee: 193.4749°
revolutions per day: 14.92034091
mean anomaly at epoch: 166.6230°
orbit number at epoch: 13063

The dashed part of the orbit path shows where the satellite is in the earth's shadow,  

DLR